Pagina principale
METAR-TAF:

METAR-TAF

Aeroporti :

Monte Malanotte

Prato Nevoso, Italia

latitudine: 44-15N, longitudine: 007-48E, altezza: 1741 m

Osservazione

Il bollettino è stato emesso 1 ora e 19 minuti fa, alle 08:55 UTC
Vento 2 kt da ovest/sud-ovest
Temperature 4°C
Umidità 56%
Pressione 1018 hPa
Visibilità 10 km o più
nessuna nube inferiore a 1500 m e nessun cumulonembo

METAR: LIMY 160855Z 24002KT CAVOK 04/M04 Q1018 RMK SKC VAL NIL VIS MIN 9999

Ora: 11:14 (10:14 UTC)


TAF: mancante

Osservazioni e previsioni meteorologiche di più di 4000 aeroporti (messaggi METAR e TAF).

Le stazioni disponibili sono rappresentate dai dischi gialli e rossi sulla carta.

Puntare il mouse per vedere il nome della stazione.

Clicca sopra per visualizzare le osservazioni e previsioni meteorologiche.

Per cambiare la mappa : fare clic sui pulsanti verdi con una croce nera per ingrandire, il pulsante verde con un trattino per diminuire, o sulla freccia verde per le mappe adiacenti.


METAR-TAF: